Location: Dodgeville, WI 53533, USA
(43.0344°N, 90.0900°W)
Time: 17:40:24
(UTC-06:00)

N. Korean satellite - Visible Passes

Search period start: 18 December 2018 00:00
Search period end: 28 December 2018 00:00
Orbit: 457 x 511 km, 97.2° (Epoch: 18 December)

Date Brightness Start Highest point End Pass type
(mag) Time Alt. Az. Time Alt. Az. Time Alt. Az.
18 Dec 6.7 06:17:54 10° NNE 06:21:31 80° ESE 06:25:10 10° S visible
18 Dec 7.2 16:54:55 10° SE 16:57:58 31° ENE 17:01:03 10° N visible
18 Dec 9.8 18:29:31 10° SW 18:31:31 15° W 18:33:33 10° NW visible
19 Dec 8.2 05:53:30 10° NNE 05:56:54 37° E 06:00:19 10° SSE visible
19 Dec 8.6 18:03:45 10° SSW 18:06:46 29° W 18:09:51 10° NW visible
20 Dec 9.5 05:29:32 10° NE 05:32:12 19° E 05:34:53 10° SE visible
20 Dec 6.9 17:38:43 10° S 17:42:07 64° W 17:45:34 10° NNW visible
21 Dec 6.7 06:37:36 10° N 06:41:10 56° WNW 06:44:47 10° SSW visible
21 Dec 6.5 17:14:11 10° SSE 17:17:32 57° ENE 17:20:58 10° N visible
22 Dec 6.9 06:12:58 10° NNE 06:16:37 69° ESE 06:20:17 10° S visible
22 Dec 9.6 18:24:14 10° SW 18:26:32 17° W 18:28:52 10° NW visible
23 Dec 8.5 05:48:38 10° NNE 05:51:58 33° E 05:55:20 10° SSE visible
23 Dec 8.3 17:58:39 10° SSW 18:01:48 33° W 18:05:00 10° NNW visible
24 Dec 9.7 05:24:45 10° NE 05:27:15 17° E 05:29:44 10° SE visible
24 Dec 6.7 17:33:43 10° S 17:37:08 75° WSW 17:40:38 10° NNW visible
25 Dec 6.6 06:32:36 10° N 06:36:15 65° WNW 06:39:55 10° SSW visible
25 Dec 6.7 17:09:14 10° SSE 17:12:34 49° ENE 17:15:58 10° N visible
26 Dec 7.2 06:08:00 10° NNE 06:11:39 60° E 06:15:20 10° S visible
26 Dec 9.4 18:18:58 10° SW 18:21:31 19° W 18:24:06 10° NW visible
27 Dec 8.8 05:43:44 10° NE 05:46:59 29° E 05:50:16 10° SSE visible
27 Dec 8.0 17:53:31 10° SSW 17:56:47 39° W 18:00:06 10° NNW visible
